EKA9146 PAEH-PANC

Flight info

Callsign EKA9146
Flight time 1h 25m
Altitude 21000
Route GASTO
Aircraft DC6/M-SDE1FGHIRWXY/S

Departure

Time 2026-05-04 16:04
Airport Cape Newenham LRRS Airport (PAEH)

Arrival

Time 2026-05-04 17:29
Airport Ted Stevens Anchorage International Airport (PANC)
Time Latitude Longitude Altitude Speed Heading
2026-05-04 15:34 58.64218 -162.06357 551 ft 0 kts 75°
2026-05-04 16:00 58.64219 -162.06352 551 ft 3 kts 75°
2026-05-04 16:01 58.64209 -162.06296 551 ft 7 kts 109°
2026-05-04 16:01 58.64221 -162.06257 550 ft 3 kts 10°
2026-05-04 16:01 58.64230 -162.06260 550 ft 0 kts 341°
2026-05-04 16:02 58.64231 -162.06260 550 ft 0 kts 341°
2026-05-04 16:03 58.64284 -162.06296 551 ft 37 kts 341°
2026-05-04 16:03 58.64780 -162.06613 563 ft 102 kts 341°
2026-05-04 16:03 58.65527 -162.07101 911 ft 122 kts 341°
2026-05-04 16:03 58.66425 -162.07368 1103 ft 142 kts
2026-05-04 16:04 58.67267 -162.06222 1300 ft 162 kts 54°
2026-05-04 16:04 58.67753 -162.01924 2063 ft 166 kts 80°
2026-05-04 16:04 58.67897 -161.99723 2456 ft 167 kts 80°
2026-05-04 16:05 58.68061 -161.97511 2849 ft 167 kts 78°
2026-05-04 16:05 58.68319 -161.95333 3241 ft 167 kts 73°
2026-05-04 16:05 58.69096 -161.91086 4014 ft 170 kts 66°
2026-05-04 16:06 58.69566 -161.88992 4400 ft 171 kts 64°
2026-05-04 16:06 58.70946 -161.83414 5430 ft 176 kts 61°
2026-05-04 16:07 58.71678 -161.80574 5951 ft 178 kts 60°
2026-05-04 16:07 58.73370 -161.74110 7104 ft 184 kts 60°
2026-05-04 16:08 58.73949 -161.71906 7487 ft 185 kts 60°
2026-05-04 16:08 58.75721 -161.65160 8662 ft 191 kts 59°
2026-05-04 16:09 58.76932 -161.60545 9444 ft 195 kts 59°
2026-05-04 16:09 58.78173 -161.55807 10198 ft 202 kts 59°
2026-05-04 16:10 58.79460 -161.50885 10942 ft 209 kts 59°
2026-05-04 16:11 58.81478 -161.43146 12056 ft 221 kts 58°
2026-05-04 16:11 58.82173 -161.40474 12438 ft 225 kts 58°
2026-05-04 16:12 58.84326 -161.32171 13577 ft 235 kts 58°
2026-05-04 16:12 58.86547 -161.23574 14726 ft 244 kts 58°
2026-05-04 16:13 58.88078 -161.17632 15510 ft 250 kts 57°
2026-05-04 16:13 58.89638 -161.11554 16319 ft 255 kts 57°
2026-05-04 16:14 58.91236 -161.05318 17093 ft 262 kts 57°
2026-05-04 16:14 58.92871 -160.98922 17875 ft 268 kts 57°
2026-05-04 16:15 58.95370 -160.89103 19067 ft 275 kts 57°
2026-05-04 16:16 58.97073 -160.82380 19877 ft 280 kts 56°
2026-05-04 16:16 58.99684 -160.72045 20912 ft 294 kts 55°
2026-05-04 16:17 59.01615 -160.64474 20974 ft 324 kts 56°
2026-05-04 16:18 59.04643 -160.52402 20931 ft 335 kts 57°
2026-05-04 16:18 59.05664 -160.48298 20924 ft 338 kts 57°
2026-05-04 16:19 59.08742 -160.35868 20914 ft 344 kts 57°
2026-05-04 16:19 59.10818 -160.27460 20930 ft 345 kts 57°
2026-05-04 16:20 59.13938 -160.14761 20921 ft 348 kts 57°
2026-05-04 16:20 59.16016 -160.06247 20918 ft 348 kts 57°
2026-05-04 16:21 59.19133 -159.93445 20912 ft 348 kts 57°
2026-05-04 16:22 59.21206 -159.84890 20909 ft 349 kts 57°
2026-05-04 16:22 59.24296 -159.72087 20908 ft 348 kts 57°
2026-05-04 16:23 59.27388 -159.59205 20912 ft 348 kts 57°
2026-05-04 16:24 59.31480 -159.41995 20918 ft 348 kts 57°
2026-05-04 16:25 59.33504 -159.33452 20917 ft 348 kts 57°
2026-05-04 16:26 59.37572 -159.16185 20904 ft 349 kts 57°
2026-05-04 16:26 59.40610 -159.03189 20911 ft 349 kts 57°
2026-05-04 16:27 59.42625 -158.94505 20907 ft 349 kts 57°
2026-05-04 16:28 59.45641 -158.81479 20909 ft 349 kts 57°
2026-05-04 16:28 59.48637 -158.68457 20917 ft 349 kts 57°
2026-05-04 16:29 59.52625 -158.50976 20924 ft 349 kts 56°
2026-05-04 16:30 59.55598 -158.37853 20918 ft 349 kts 56°
2026-05-04 16:31 59.57575 -158.29086 20921 ft 349 kts 56°
2026-05-04 16:31 59.60530 -158.15909 20913 ft 350 kts 56°
2026-05-04 16:32 59.63475 -158.02708 20909 ft 350 kts 56°
2026-05-04 16:33 59.65430 -157.93894 20926 ft 350 kts 56°
2026-05-04 16:33 59.67377 -157.85073 20925 ft 350 kts 56°
2026-05-04 16:34 59.69319 -157.76247 20928 ft 350 kts 56°
2026-05-04 16:34 59.70291 -157.71820 20929 ft 350 kts 56°
2026-05-04 16:35 59.73177 -157.58609 20937 ft 350 kts 57°
2026-05-04 16:35 59.76064 -157.45318 20952 ft 350 kts 56°
2026-05-04 16:36 59.77026 -157.40881 20951 ft 350 kts 57°
2026-05-04 16:36 59.78944 -157.31986 20946 ft 350 kts 57°
2026-05-04 16:37 59.80845 -157.23121 20948 ft 351 kts 57°
2026-05-04 16:37 59.81796 -157.18664 20952 ft 350 kts 57°
2026-05-04 16:37 59.83699 -157.09742 20946 ft 351 kts 57°
2026-05-04 16:38 59.85594 -157.00799 20955 ft 350 kts 57°
2026-05-04 16:39 59.88419 -156.87391 20942 ft 351 kts 57°
2026-05-04 16:39 59.90301 -156.78423 20939 ft 350 kts 57°
2026-05-04 16:40 59.92172 -156.69459 20951 ft 350 kts 57°
2026-05-04 16:40 59.94026 -156.60550 20943 ft 351 kts 57°
2026-05-04 16:41 59.95889 -156.51549 20935 ft 350 kts 57°
2026-05-04 16:41 59.98808 -156.38294 20930 ft 336 kts 45°
2026-05-04 16:42 60.03132 -156.27901 20947 ft 319 kts 31°
2026-05-04 16:43 60.06165 -156.21409 20946 ft 318 kts 31°
2026-05-04 16:43 60.09197 -156.14913 20937 ft 319 kts 31°
2026-05-04 16:43 60.10708 -156.11651 20939 ft 320 kts 31°
2026-05-04 16:44 60.16217 -155.99594 20934 ft 320 kts 32°
2026-05-04 16:45 60.19180 -155.92975 20934 ft 320 kts 33°
2026-05-04 16:46 60.23634 -155.82879 20880 ft 323 kts 33°
2026-05-04 16:46 60.26593 -155.76054 20881 ft 323 kts 34°
2026-05-04 16:47 60.29526 -155.69191 20876 ft 323 kts 34°
2026-05-04 16:47 60.32429 -155.62308 20879 ft 322 kts 36°
2026-05-04 16:48 60.36738 -155.51909 20881 ft 321 kts 37°
2026-05-04 16:48 60.38157 -155.48425 20882 ft 321 kts 37°
2026-05-04 16:49 60.40980 -155.41428 20880 ft 320 kts 38°
2026-05-04 16:49 60.43754 -155.34453 20881 ft 320 kts 38°
2026-05-04 16:50 60.46522 -155.27387 20881 ft 319 kts 39°
2026-05-04 16:50 60.49256 -155.20301 20882 ft 319 kts 40°
2026-05-04 16:51 60.51963 -155.13176 20882 ft 318 kts 40°
2026-05-04 16:51 60.53304 -155.09605 20883 ft 318 kts 41°
2026-05-04 16:51 60.55965 -155.02434 20884 ft 318 kts 41°
2026-05-04 16:52 60.58584 -154.95265 20884 ft 317 kts 42°
2026-05-04 16:52 60.59891 -154.91644 20876 ft 318 kts 43°
2026-05-04 16:53 60.62493 -154.84349 20838 ft 319 kts 43°
2026-05-04 16:53 60.66346 -154.73307 20829 ft 318 kts 44°
2026-05-04 16:54 60.67612 -154.69613 20829 ft 317 kts 44°
2026-05-04 16:55 60.72596 -154.54757 20827 ft 317 kts 45°
2026-05-04 16:55 60.75044 -154.47263 20826 ft 317 kts 46°
2026-05-04 16:56 60.77447 -154.39767 20825 ft 317 kts 47°
2026-05-04 16:56 60.81019 -154.28355 20816 ft 317 kts 47°
2026-05-04 16:57 60.82196 -154.24522 20814 ft 318 kts 48°
2026-05-04 16:57 60.84527 -154.16812 20813 ft 318 kts 49°
2026-05-04 16:58 60.88073 -154.05084 20392 ft 329 kts 49°
2026-05-04 16:58 60.89312 -154.01074 20145 ft 334 kts 49°
2026-05-04 16:59 60.91852 -153.92994 19669 ft 338 kts 49°
2026-05-04 17:00 60.97068 -153.76851 18756 ft 338 kts 49°
2026-05-04 17:00 61.00976 -153.64942 18095 ft 334 kts 49°
2026-05-04 17:01 61.03586 -153.57077 17654 ft 331 kts 49°
2026-05-04 17:01 61.06186 -153.49284 17227 ft 328 kts 49°
2026-05-04 17:02 61.08764 -153.41579 16820 ft 324 kts 49°
2026-05-04 17:02 61.11325 -153.33944 16399 ft 321 kts 49°
2026-05-04 17:03 61.12599 -153.30161 16189 ft 320 kts 49°
2026-05-04 17:03 61.13866 -153.26407 15984 ft 318 kts 49°
2026-05-04 17:03 61.16381 -153.18968 15572 ft 315 kts 49°
2026-05-04 17:04 61.18906 -153.11520 15162 ft 312 kts 49°
2026-05-04 17:04 61.21381 -153.04248 14768 ft 310 kts 49°
2026-05-04 17:05 61.23860 -152.96976 14360 ft 307 kts 49°
2026-05-04 17:05 61.26326 -152.89774 13967 ft 305 kts 49°
2026-05-04 17:06 61.28770 -152.82657 13794 ft 295 kts 50°
2026-05-04 17:06 61.29953 -152.79220 13796 ft 289 kts 49°
2026-05-04 17:07 61.32262 -152.72505 13800 ft 281 kts 49°
2026-05-04 17:07 61.33017 -152.70314 13800 ft 280 kts 49°
2026-05-04 17:07 61.34512 -152.65967 13797 ft 278 kts 49°
2026-05-04 17:07 61.35647 -152.62663 13799 ft 276 kts 50°
2026-05-04 17:08 61.36752 -152.59456 13795 ft 275 kts 49°
2026-05-04 17:08 61.38979 -152.52978 13801 ft 275 kts 51°
2026-05-04 17:08 61.39754 -152.49320 13796 ft 281 kts 74°
2026-05-04 17:09 61.39696 -152.45249 13803 ft 283 kts 102°
2026-05-04 17:09 61.39006 -152.41410 13806 ft 283 kts 115°
2026-05-04 17:09 61.38102 -152.37738 13792 ft 284 kts 120°
2026-05-04 17:10 61.36161 -152.30578 13802 ft 284 kts 121°
2026-05-04 17:10 61.33255 -152.19828 13785 ft 284 kts 120°
2026-05-04 17:11 61.32305 -152.16218 13792 ft 284 kts 120°
2026-05-04 17:11 61.31368 -152.12606 13786 ft 284 kts 119°
2026-05-04 17:11 61.29516 -152.05309 13583 ft 291 kts 118°
2026-05-04 17:12 61.28583 -152.01550 13340 ft 298 kts 118°
2026-05-04 17:12 61.26706 -151.93775 12902 ft 303 kts 117°
2026-05-04 17:13 61.23966 -151.81867 12280 ft 305 kts 116°
2026-05-04 17:14 61.21373 -151.69831 11645 ft 303 kts 114°
2026-05-04 17:14 61.20552 -151.65834 11434 ft 302 kts 113°
2026-05-04 17:14 61.18974 -151.57782 11018 ft 300 kts 111°
2026-05-04 17:15 61.18299 -151.53705 10818 ft 298 kts 107°
2026-05-04 17:15 61.17340 -151.45380 10422 ft 295 kts 99°
2026-05-04 17:16 61.16822 -151.36976 10026 ft 292 kts 94°
2026-05-04 17:16 61.16527 -151.24521 9447 ft 287 kts 90°
2026-05-04 17:17 61.16498 -151.20396 9254 ft 286 kts 89°
2026-05-04 17:17 61.16506 -151.08136 8678 ft 282 kts 88°
2026-05-04 17:18 61.16524 -151.04087 8489 ft 281 kts 88°
2026-05-04 17:18 61.16572 -150.96028 8130 ft 279 kts 88°
2026-05-04 17:19 61.16625 -150.88089 7736 ft 270 kts 88°
2026-05-04 17:19 61.16673 -150.80515 7347 ft 259 kts 87°
2026-05-04 17:20 61.16719 -150.73109 6958 ft 255 kts 87°
2026-05-04 17:20 61.16763 -150.65782 6572 ft 253 kts 87°
2026-05-04 17:20 61.16783 -150.62148 6380 ft 252 kts 87°
2026-05-04 17:21 61.16820 -150.54920 5998 ft 250 kts 87°
2026-05-04 17:21 61.16853 -150.47777 5621 ft 248 kts 87°
2026-05-04 17:22 61.16869 -150.44159 5431 ft 248 kts 87°
2026-05-04 17:22 61.16883 -150.40610 5244 ft 247 kts 87°
2026-05-04 17:23 61.16920 -150.30028 4692 ft 244 kts 88°
2026-05-04 17:23 61.16925 -150.26790 4685 ft 194 kts 88°
2026-05-04 17:23 61.16930 -150.22169 4429 ft 139 kts 86°
2026-05-04 17:24 61.16938 -150.20287 4160 ft 123 kts 86°
2026-05-04 17:24 61.16954 -150.15802 3072 ft 94 kts 86°
2026-05-04 17:25 61.16957 -150.14437 2651 ft 93 kts 86°
2026-05-04 17:25 61.16962 -150.11786 1832 ft 92 kts 86°
2026-05-04 17:26 61.16968 -150.08820 1353 ft 106 kts 87°
2026-05-04 17:26 61.16972 -150.04838 651 ft 80 kts 88°
2026-05-04 17:27 61.16965 -150.02441 499 ft 83 kts 94°
2026-05-04 17:27 61.16936 -150.00043 376 ft 86 kts 84°
2026-05-04 17:28 61.16977 -149.97855 162 ft 65 kts 89°
2026-05-04 17:29 61.16984 -149.96201 162 ft 22 kts 90°
2026-05-04 17:29 61.17045 -149.94878 162 ft 17 kts 21°
2026-05-04 17:30 61.17275 -149.94931 162 ft 1 kts 360°